This is the latest recevied weather packets stored in our database for station/object KR8N. If no packets are shown the sender has not sent any weather packets the latest 10 day(s).
| Time | Temp. | Humidity | Pressure | Rain* | Wind** | Luminosity | Snow |
|---|---|---|---|---|---|---|---|
| 1777324513 | 23.89° C | 29% | 1020.7 hPa | 0 mm | - | 360 W/m² | - |
| 1777324210 | 23.89° C | 31% | 1020.8 hPa | 0 mm | - | 332 W/m² | - |
| 1777323909 | 23.89° C | 30% | 1020.8 hPa | 0 mm | - | 435 W/m² | - |
| 1777323605 | 23.33° C | 30% | 1021.1 hPa | 0 mm | - | 516 W/m² | - |
| 1777323302 | 23.33° C | 34% | 1020.9 hPa | 0 mm | - | 224 W/m² | - |
| 1777323000 | 23.89° C | 29% | 1020.9 hPa | 0 mm | - | 264 W/m² | - |
| 1777322698 | 23.89° C | 29% | 1020.8 hPa | 0 mm | - | 397 W/m² | - |
| 1777322396 | 24.44° C | 30% | 1020.8 hPa | 0 mm | - | 418 W/m² | - |
| 1777322092 | 24.44° C | 32% | 1020.8 hPa | 0 mm | - | 455 W/m² | - |
| 1777321789 | 24.44° C | 33% | 1020.7 hPa | 0 mm | - | 504 W/m² | - |
| 1777321485 | 23.89° C | 31% | 1020.7 hPa | 0 mm | - | 542 W/m² | - |
| 1777321183 | 23.89° C | 32% | 1020.9 hPa | 0 mm | - | 565 W/m² | - |
| 1777320880 | 23.89° C | 33% | 1020.9 hPa | 0 mm | - | 556 W/m² | - |
| 1777320577 | 24.44° C | 32% | 1021.2 hPa | 0 mm | - | 603 W/m² | - |
| 1777320275 | 24.44° C | 29% | 1021.1 hPa | 0 mm | - | 620 W/m² | - |
| 1777319971 | 23.89° C | 32% | 1021.3 hPa | 0 mm | - | 651 W/m² | - |
| 1777319668 | 23.89° C | 34% | 1021.4 hPa | 0 mm | - | 686 W/m² | - |
| 1777319365 | 23.89° C | 30% | 1021.6 hPa | 0 mm | - | 694 W/m² | - |
| 1777319062 | 23.89° C | 33% | 1021.9 hPa | 0 mm | - | 700 W/m² | - |
| 1777318759 | 23.89° C | 33% | 1021.9 hPa | 0 mm | - | 735 W/m² | - |
| 1777318454 | 23.33° C | 33% | 1021.9 hPa | 0 mm | - | 756 W/m² | - |
| 1777318152 | 23.89° C | 34% | 1021.9 hPa | 0 mm | - | 770 W/m² | - |
| 1777317849 | 23.33° C | 36% | 1021.9 hPa | 0 mm | - | 783 W/m² | - |
| 1777317546 | 23.33° C | 35% | 1022.1 hPa | 0 mm | - | 772 W/m² | - |
| 1777317243 | 23.33° C | 34% | 1022.1 hPa | 0 mm | - | 803 W/m² | - |
* Rain latest hour (hover to see other rain measurements)
** Current wind speed in m/s (hover to see current wind gust speed)